DLH225 EKVG-ENTC

Flight info

Callsign DLH225
Flight time N/A
Altitude 35000
Route ODEVA DCT 65N000E/N0440F350 DCT NORVA DCT GILGU
Aircraft B752/M-SDE2E3FGHIJ3J4J7RWXY/LB1

Departure

Time 2026-04-29 15:00
Airport Vágar Airport (EKVG)

Arrival

Time N/A
Airport Tromsø Airport (ENTC)
Time Latitude Longitude Altitude Speed Heading
2026-04-29 15:00 62.04022 -7.21524 2187 ft 166 kts 169°
2026-04-29 15:00 62.02969 -7.21529 2909 ft 146 kts 200°
2026-04-29 15:00 62.02013 -7.22365 3273 ft 160 kts 210°
2026-04-29 15:00 62.00898 -7.23322 3549 ft 188 kts 198°
2026-04-29 15:01 61.99534 -7.23675 4074 ft 209 kts 185°
2026-04-29 15:01 61.98015 -7.23240 4615 ft 233 kts 169°
2026-04-29 15:01 61.96488 -7.21848 5397 ft 247 kts 156°
2026-04-29 15:01 61.95121 -7.19607 6297 ft 258 kts 141°
2026-04-29 15:02 61.94017 -7.16506 7138 ft 271 kts 126°
2026-04-29 15:02 61.93317 -7.12730 7932 ft 286 kts 109°
2026-04-29 15:02 61.93105 -7.08461 8541 ft 305 kts 97°
2026-04-29 15:02 61.92999 -7.03930 9394 ft 308 kts 101°
2026-04-29 15:03 61.92797 -6.99438 10213 ft 312 kts 102°
2026-04-29 15:03 61.92550 -6.94803 10918 ft 322 kts 103°
2026-04-29 15:03 61.92265 -6.89971 11292 ft 343 kts 103°
2026-04-29 15:03 61.91944 -6.84757 11705 ft 364 kts 102°
2026-04-29 15:04 61.91622 -6.79341 12310 ft 377 kts 99°
2026-04-29 15:04 61.91760 -6.73733 13131 ft 389 kts 82°
2026-04-29 15:04 61.92595 -6.68238 13786 ft 403 kts 65°
2026-04-29 15:04 61.94123 -6.63239 14592 ft 408 kts 49°
2026-04-29 15:05 61.96211 -6.59172 15312 ft 412 kts 32°
2026-04-29 15:05 61.98712 -6.56366 16103 ft 409 kts 16°
2026-04-29 15:05 62.01466 -6.54966 16741 ft 407 kts 360°
2026-04-29 15:05 62.04226 -6.55115 17460 ft 399 kts 344°
2026-04-29 15:06 62.06863 -6.56759 18132 ft 391 kts 328°
2026-04-29 15:06 62.09131 -6.59746 18798 ft 381 kts 312°
2026-04-29 15:06 62.10889 -6.63804 19418 ft 373 kts 297°
2026-04-29 15:06 62.12039 -6.68696 20089 ft 365 kts 282°
2026-04-29 15:07 62.12767 -6.73868 20740 ft 366 kts 281°
2026-04-29 15:07 62.13483 -6.79054 21277 ft 372 kts 281°
2026-04-29 15:07 62.14211 -6.84329 21956 ft 373 kts 281°
2026-04-29 15:07 62.14951 -6.89700 22488 ft 378 kts 281°
2026-04-29 15:08 62.15689 -6.95067 23052 ft 382 kts 281°
2026-04-29 15:08 62.16447 -7.00599 23571 ft 387 kts 281°
2026-04-29 15:08 62.17205 -7.06105 24190 ft 388 kts 282°
2026-04-29 15:08 62.18204 -7.11517 24750 ft 397 kts 291°
2026-04-29 15:09 62.18552 -7.12911 24875 ft 400 kts 294°